Friday, July 25, 2014
16:04 UTC
  |  Log In   |  Register Free
Airport Search:

Richmond Municipal Airport
(KRID)

Richmond Municipal Airport Diagram
No Airport Diagram Available

FAA data valid effective July 24, 2014 until September 18, 2014 (unless otherwise noted).

 
 
 
 
 
 
 
 
 
 
 
 
 
 

Current Aviation Weather for Richmond Municipal Airport (KRID)

The most recent METAR observation for KMWO was updated at: 1435 UTC
METAR Summary (Translated METAR)
KMWO
251435Z AUTO 00000KT 10SM CLR 21/13 A3013 RMK AO2 T02080129
KMGY
(8.6 nm NE from KMWO)
251453Z AUTO 23004KT 10SM CLR 20/13 A3012 RMK AO2 SLP194 T02000128 55003
TAF
No TAF information found within 50 nm of KMWO
  Airport Weather Conditions for KRID

Current weather conditions are
not available for RID


The nearest NOAA weather station
is at MWO, (24.7 nm SE from RID)
  
 Current Weather at MWO
70° F
Fair
North winds at 0.0 mph
MWO NOAA Radar

Pressure: 30.14 in
Humidity: 55%
Wind: Calm
Dew Point: 53.2°F
Visibility: 10.00 mi


Airport Weather Forecast for KRID

Translated METAR and TAF for KMWO
Translated METAR for KMWO (1558 UTC 25 July 2014)
found at http://aviationweather.gov/adds/metars/
 
METAR text: KMWO 251535Z AUTO 00000KT 10SM CLR 24/14 A3012 RMK AO2 T02360139
Conditions at: KMWO (MIDDLETOWN/HOOK , OH, US) observed 1535 UTC 25 July 2014
Temperature: 23.6°C (74°F)
Dewpoint: 13.9°C (57°F) [RH = 55%]
Pressure (altimeter): 30.12 inches Hg (1020.1 mb)
Winds: calm
Visibility: 10 or more miles (16+ km)
Ceiling: at least 12,000 feet AGL
Clouds: sky clear below 12,000 feet AGL
Weather: automated observation with no human augmentation;
there may or may not be significant weather present at this time
Translated TAF for KMWO

There is no translated TAF available for this airport

Find All Airport Services Find A Hotel Find A Rental Car Find A Golf Course Find A Restaurant $100 Hamburger



FBO's on the Field
FBO Company Facility Photos Services Transportation Aviation Fuel Prices: Prices include tax
Catering Weather Repair Courtesy Rental Type 100LL JetA JetA+ MOGAS 8087
 
Richmond Municipal Airport

This FBO has not yet been rated
FS:Phillips66
Last Updated: Jul-21
Login to update fuel prices
SS:
Contact Richmond Municipal AirportMore FBO Information
 
Add another FBO Facility Photos Catering Weather Repair Courtesy Rental Type 100LL JetA JetA+ MOGAS 8087
Services Transportation Aviation Fuel Prices: Prices include tax


GlobalAir.com Airport Resource Center model-print
model-print
model-print
model-print